Current weather by "City, St" or "zip code"  
 

Current Conditions: Enterprise Municipal Airport, AL

Overcast


77.0 F

Last Updated on Oct 21 2021, 12:55 pm CDT
Humidity: 70%
Wind Speed: N 0.0 mph
Barometer 30.15 in
Dewpoint: 66.6 F
Visibility: 10.00 mi
Precip: --
Heat Index: NA
Wind Chill: NA
Current conditions at:

Enterprise Municipal Airport, AL (KEDN)

Lat: 31.2982 Lon: 85.9048

Local Radar Image active severe weather and emergency alerts image image weather storm and storm spotter reports image weather observation monitoring service image
Local
Radar
Active
Alerts
Storm Reports Obs
Monitoring

Sign-up For Email & Text Message Weather Alert Notification Services



Advertise Here

Observation History for Enterprise Municipal Airport, AL


Time Wind
(mph)
Vis
(mi)
Weather Precip (in) Temperature (F) Relative
Humidity
Wind
Chill
(F)
Heat
Index
(F)
Pressure
Air Dwpt altimeter
(in)
sea level
(mb)
Rmks
12:55 pm CDT N 0.0 10.00 Overcast -- 77.0 66.6 70% NA NA 30.15 M
11:55 am CDT SW 4.6 10.00 Mostly Cloudy -- 78.0 67.1 69% NA NA 30.18 M
10:55 am CDT S 5.8 10.00 Mostly Cloudy -- 74.0 64.4 71% NA NA 30.19 M
9:55 am CDT S 3.5 10.00 Overcast -- 73.0 63.3 72% NA NA 30.20 M
8:55 am CDT SE 4.6 10.00 Mostly Cloudy -- 68.0 61.2 78% NA NA 30.19 M
7:55 am CDT SE 3.5 10.00 Fair -- 65.0 62.8 92% NA NA 30.16 M
6:55 am CDT N 0.0 10.00 Fair -- 63.0 62.4 99% NA NA 30.16 M
5:55 am CDT N 0.0 10.00 Overcast -- 64.0 63.7 100% NA NA 30.15 M
4:55 am CDT N 0.0 10.00 Overcast -- 64.0 63.5 100% NA NA 30.15 M
3:55 am CDT N 0.0 10.00 Overcast -- 63.0 63.0 100% NA NA 30.15 M
2:55 am CDT N 0.0 10.00 Partly Cloudy -- 63.0 62.8 100% NA NA 30.15 M
1:55 am CDT N 0.0 10.00 Fair -- 64.0 63.9 100% NA NA 30.16 M
12:55 am CDT N 0.0 10.00 Fair -- 65.0 64.8 99% NA NA 30.16 M
11:55 pm CDT N 0.0 10.00 Fair -- 67.0 64.4 91% NA NA 30.18 M
10:55 pm CDT N 0.0 10.00 Fair -- 67.0 62.6 86% NA NA 30.21 M
9:55 pm CDT N 0.0 10.00 Fair -- 69.0 61.5 77% NA NA 30.20 M
8:55 pm CDT N 0.0 10.00 Mostly Cloudy -- 68.0 62.2 83% NA NA 30.20 M
7:55 pm CDT N 0.0 10.00 Fair -- 70.0 61.5 74% NA NA 30.17 M
6:55 pm CDT E 4.6 10.00 Fair -- 72.0 61.7 71% NA NA 30.16 M
5:55 pm CDT N 0.0 10.00 Fair -- 76.0 61.0 60% NA NA 30.17 M
4:55 pm CDT E 5.8 10.00 Fair -- 79.0 60.1 52% NA NA 30.17 M
3:55 pm CDT E 5.8 10.00 Partly Cloudy -- 80.0 60.6 52% NA 81 30.17 M
2:55 pm CDT N 0.0 10.00 Partly Cloudy -- 80.0 60.1 51% NA 81 30.19 M
1:55 pm CDT E 4.6 10.00 Fair -- 80.0 59.7 51% NA 81 30.20 M

Regional Weather Observation


Andalusia, Andalusia-Opp Municipal Airport, AL (K79J)

Overcast
82.0 F

Enterprise Municipal Airport, AL (KEDN)

Overcast
77.0 F

SCHELL AHP, AL (KSXS)

Overcast
78.0 F

Florala, Florala Municipal Airport, AL (K0J4)

Overcast
81.0 F

Fort Rucker, Lowe Army Heliport, AL (KLOR)

Overcast
78.0 F

Cairns Army Air Field / Ozark, AL (KOZR)

Mostly Cloudy
80.0 F

Advertise Here


Advertise Here